Home   Weather   Yonkers   Past weeks

Flag for USA Past Weather in Yonkers, New York, USA — Yesterday and Last 2 Weeks

Now
42 °F

Passing clouds.


Feels Like: 39 °F
Forecast: 34 / 43 °F
Wind: 5 mph from North

Location: Teterboro Airport

Current Time: Jan 19, 2017 at 11:15:18 pm

Latest Report: Jan 19, 2017 at 10:03 pm


Visibility: 10 mi

Pressure: 30.01 "Hg

Humidity: 71%

Dew Point: 33 °F

Location of YonkersLocation

Past Weather in Yonkers — Graph

°F

Yonkers Temperature Yesterday

Maximum temperature yesterday: 43 °F (at 3:51 pm)
Minimum temperature yesterday: 39 °F (at 12:01 am)
Average temperature yesterday: 41 °F

High & Low Weather Summary for the Past Weeks

 TemperatureHumidityPressure
High67 °F (Jan 12, 6:51 pm)96% (Jan 12, 12:51 am)30.76 "Hg (Jan 12, 12:51 am)
Low7 °F (Jan 9, 6:51 am)35% (Jan 8, 3:51 pm)29.72 "Hg (Jan 4, 10:51 pm)
Average35 °F67%30.25 "Hg
* Reported Jan 4 10:51 pm — Jan 19 10:03 pm, Yonkers, Weather by CustomWeather, © 2017

Note: Actual official high and low records may vary slightly from our data, if they occured in-between our weather recording intervals... More about our weather records

Advertising

Yonkers Weather History for the Previous 24 Hours

Scroll right to see more
 ConditionsComfort  
Time TempWeatherWind HumidityBarometerVisibility
10:03 pm
Thu, Jan 19
42 °FPassing clouds.5 mph71%30.01 "Hg10 mi
8:51 pm42 °FOvercast.5 mph68%30.03 "Hg10 mi
7:51 pm43 °FOvercast.7 mph68%30.03 "Hg10 mi
6:51 pm43 °FOvercast.7 mph65%30.03 "Hg10 mi
5:51 pm44 °FOvercast.9 mph65%30.00 "Hg10 mi
4:51 pm45 °FOvercast.9 mph65%29.99 "Hg10 mi
4:23 pm45 °FOvercast.9 mph65%29.99 "Hg10 mi
3:51 pm45 °FOvercast.6 mph65%29.98 "Hg10 mi
2:51 pm45 °FOvercast.12 mph68%29.99 "Hg10 mi
1:51 pm45 °FOvercast.10 mph68%29.99 "Hg10 mi
1:10 pm47 °FPartly sunny.17 mph66%29.99 "Hg10 mi
12:51 pm47 °FPassing clouds.13 mph66%29.99 "Hg10 mi
11:51 am49 °FPartly sunny.9 mph61%30.01 "Hg10 mi
10:51 am49 °FPassing clouds.10 mph61%30.03 "Hg10 mi
9:51 am46 °FSunny.10 mph68%30.05 "Hg10 mi
7:51 am39 °FSunny.No wind93%30.04 "Hg10 mi
6:51 am33 °FFog.3 mph96%30.02 "Hg10 mi
5:51 am36 °FClear.No wind92%30.01 "Hg10 mi
4:51 am37 °FPassing clouds.No wind93%30.01 "Hg10 mi
3:51 am38 °FMostly cloudy.No wind93%30.03 "Hg10 mi
3:26 am37 °FOvercast.No wind96%30.02 "Hg10 mi
2:51 am38 °FMostly cloudy.No wind93%30.02 "Hg10 mi
1:51 am38 °FOvercast.No wind93%30.02 "Hg10 mi
12:51 am39 °FOvercast.No wind86%30.01 "Hg10 mi
11:51 pm
Wed, Jan 18
40 °FDrizzle. Overcast.No wind86%30.01 "Hg10 mi
Weather by CustomWeather, © 2017

See weather overviewHow to use our weather pages